This is the latest recevied weather packets stored in our database for station/object WB5LFS-1. If no packets are shown the sender has not sent any weather packets the latest 10 day(s).
| Time | Temp. | Humidity | Pressure | Rain* | Wind** | Luminosity | Snow |
|---|---|---|---|---|---|---|---|
| 1777435919 | 9.44° C | 82% | 1018.1 hPa | 0 mm | - | - | - |
| 1777435019 | 10° C | 81% | 1018.5 hPa | 0 mm | - | - | - |
| 1777434119 | 10° C | 79% | 1018.6 hPa | 0 mm | - | - | - |
| 1777433219 | 10.56° C | 78% | 1018.4 hPa | 0 mm | - | - | - |
| 1777432319 | 11.11° C | 76% | 1018.4 hPa | 0 mm | - | - | - |
| 1777431419 | 11.11° C | 75% | 1018 hPa | 0 mm | - | - | - |
| 1777430519 | 11.67° C | 75% | 1017.6 hPa | 0 mm | - | - | - |
| 1777429619 | 11.67° C | 74% | 1017.5 hPa | 0 mm | - | - | - |
| 1777428719 | 11.67° C | 74% | 1017.8 hPa | 0 mm | - | - | - |
| 1777427819 | 12.22° C | 73% | 1017.7 hPa | 0 mm | - | - | - |
| 1777426919 | 12.22° C | 73% | 1017.9 hPa | 0 mm | - | - | - |
| 1777426019 | 12.22° C | 72% | 1017.7 hPa | 0 mm | - | - | - |
| 1777425119 | 12.78° C | 74% | 1017.1 hPa | 0 mm | - | - | - |
| 1777424219 | 12.78° C | 74% | 1016.9 hPa | 0 mm | - | - | - |
| 1777423319 | 12.78° C | 73% | 1016.5 hPa | 0 mm | - | - | - |
| 1777422419 | 13.33° C | 71% | 1016.5 hPa | 0 mm | - | - | - |
| 1777421519 | 13.89° C | 70% | 1016.9 hPa | 0 mm | - | - | - |
| 1777420619 | 13.89° C | 69% | 1017.1 hPa | 0 mm | - | - | - |
| 1777419719 | 15° C | 66% | 1017.7 hPa | 0 mm | - | - | - |
| 1777418819 | 16.11° C | 67% | 1017.2 hPa | 0 mm | - | - | - |
| 1777417919 | 16.67° C | 65% | 1017.9 hPa | 0 mm | - | - | - |
| 1777417019 | 17.78° C | 62% | 1017.4 hPa | 0 mm | - | - | - |
| 1777416119 | 18.89° C | 56% | 1017.2 hPa | 0 mm | - | - | - |
| 1777415219 | 19.44° C | 56% | 1017.1 hPa | 0 mm | - | - | - |
| 1777414319 | 19.44° C | 57% | 1017.1 hPa | 0 mm | - | - | - |
* Rain latest hour (hover to see other rain measurements)
** Current wind speed in m/s (hover to see current wind gust speed)